| time (UTC) | temp F | wind direction | speed MPH | gust MPH | rain 1hr in | rain 24hr in | rain mn in | humidity % | barometer mb |
| 20260905175244 | 73 | 0 | 1.0 | 18.0 | 0.00 | 0.00 | 0.00 | 1012.0 | |
| 20260905173744 | 74 | 0 | 1.0 | 12.0 | 0.00 | 0.00 | 0.00 | 1012.0 | |
| 20260905172244 | 75 | 0 | 1.0 | 12.0 | 0.00 | 0.00 | 0.00 | 1011.0 | |
| 20260905170744 | 76 | 0 | 1.0 | 14.0 | 0.00 | 0.00 | 0.00 | 1011.0 | |
| 20260905165244 | 78 | 0 | 1.0 | 15.0 | 0.00 | 0.00 | 0.00 | 1011.0 | |
| 20260905163744 | 78 | 0 | 1.0 | 14.0 | 0.00 | 0.00 | 0.00 | 1011.0 | |
| 20260905162244 | 77 | 0 | 2.0 | 10.0 | 0.00 | 0.00 | 0.00 | 1011.0 | |
| 20260905160744 | 80 | 0 | 2.0 | 19.0 | 0.00 | 0.00 | 0.00 | 1011.0 | |
| 20260905155244 | 80 | 0 | 2.0 | 22.0 | 0.00 | 0.00 | 0.00 | 1011.0 | |
| 20260905153744 | 80 | 0 | 2.0 | 10.0 | 0.00 | 0.00 | 0.00 | 1010.0 | |
| 20260905152244 | 81 | 0 | 2.0 | 18.0 | 0.00 | 0.00 | 0.00 | 1010.0 | |
| 20260905150744 | 81 | 0 | 2.0 | 11.0 | 0.00 | 0.00 | 0.00 | 1010.0 | |
| 20260905145244 | 82 | 0 | 2.0 | 13.0 | 0.00 | 0.00 | 0.00 | 1010.0 | |
| 20260905143744 | 83 | 0 | 2.0 | 14.0 | 0.00 | 0.00 | 0.00 | 1010.0 | |
| 20260905142244 | 84 | 0 | 2.0 | 9.0 | 0.00 | 0.00 | 0.00 | 1010.0 | |
| 20260905140744 | 84 | 0 | 2.0 | 9.0 | 0.00 | 0.00 | 0.00 | 1010.0 | |
| 20260905135244 | 85 | 0 | 2.0 | 11.0 | 0.00 | 0.00 | 0.00 | 1010.0 | |
| 20260905133744 | 85 | 0 | 2.0 | 11.0 | 0.00 | 0.00 | 0.00 | 1010.0 | |
| 20260905132244 | 85 | 0 | 2.0 | 13.0 | 0.00 | 0.00 | 0.00 | 1011.0 | |
| 20260905130744 | 86 | 0 | 2.0 | 13.0 | 0.00 | 0.00 | 0.00 | 1010.0 | |
| 20260905125244 | 88 | 0 | 1.0 | 7.0 | 0.00 | 0.00 | 0.00 | 1010.0 | |
| 20260905123744 | 88 | 0 | 1.0 | 27.0 | 0.00 | 0.00 | 0.00 | 1010.0 | |
| 20260905122244 | 86 | 0 | 2.0 | 9.0 | 0.00 | 0.00 | 0.00 | 1010.0 | |
| 20260905120744 | 86 | 0 | 2.0 | 15.0 | 0.00 | 0.00 | 0.00 | 1011.0 | |
| 20260905115244 | 86 | 0 | 1.0 | 11.0 | 0.00 | 0.00 | 0.00 | 1010.0 | |
| 20260905113744 | 84 | 0 | 2.0 | 15.0 | 0.00 | 0.00 | 0.00 | 1011.0 | |
| 20260905112244 | 83 | 0 | 2.0 | 9.0 | 0.00 | 0.00 | 0.00 | 1011.0 | |
| 20260905110744 | 86 | 0 | 2.0 | 11.0 | 0.00 | 0.00 | 0.00 | 1011.0 | |
| 20260905105244 | 84 | 0 | 1.0 | 17.0 | 0.00 | 0.00 | 0.00 | 1011.0 | |
| 20260905103744 | 82 | 0 | 1.0 | 9.0 | 0.00 | 0.00 | 0.00 | 1011.0 | |
| 20260905102244 | 82 | 0 | 1.0 | 13.0 | 0.00 | 0.00 | 0.00 | 1011.0 | |
| 20260905100744 | 83 | 0 | 1.0 | 10.0 | 0.00 | 0.00 | 0.00 | 1011.0 | |
| 20260905095244 | 77 | 0 | 1.0 | 9.0 | 0.00 | 0.00 | 0.00 | 1011.0 | |
| 20260905093744 | 76 | 0 | 1.0 | 10.0 | 0.00 | 0.00 | 0.00 | 1012.0 | |
| 20260905092244 | 72 | 0 | 1.0 | 12.0 | 0.00 | 0.00 | 0.00 | 1012.0 | |
| 20260905090744 | 70 | 0 | 1.0 | 19.0 | 0.00 | 0.00 | 0.00 | 1012.0 | |
| 20260905085244 | 69 | 0 | 1.0 | 12.0 | 0.00 | 0.00 | 0.00 | 1012.0 | |
| 20260905083744 | 69 | 0 | 0.0 | 11.0 | 0.00 | 0.00 | 0.00 | 1012.0 | |
| 20260905082244 | 67 | 0 | 0.0 | 7.0 | 0.00 | 0.00 | 0.00 | 1012.0 | |
| 20260905080744 | 65 | 0 | 0.0 | 12.0 | 0.00 | 0.00 | 0.00 | 1012.0 | |
| 20260905075244 | 64 | 0 | 0.0 | 9.0 | 0.00 | 0.00 | 0.00 | 1012.0 | |
| 20260905073744 | 64 | 0 | 0.0 | 20.0 | 0.00 | 0.00 | 0.00 | 1012.0 | |
| 20260905072244 | 63 | 0 | 1.0 | 30.0 | 0.00 | 0.00 | 0.00 | 1011.0 | |
| 20260905070744 | 62 | 0 | 1.0 | 16.0 | 0.00 | 0.00 | 0.00 | 1011.0 | |
| 20260905065244 | 61 | 0 | 1.0 | 23.0 | 0.00 | 0.00 | 0.00 | 1011.0 | |
| 20260905063744 | 62 | 0 | 1.0 | 15.0 | 0.00 | 0.00 | 0.00 | 1011.0 | |
| 20260905062244 | 63 | 0 | 2.0 | 18.0 | 0.00 | 0.00 | 0.00 | 1011.0 | |
| 20260905060744 | 64 | 0 | 2.0 | 21.0 | 0.00 | 0.00 | 0.00 | 1011.0 | |
| 20260905055244 | 64 | 0 | 2.0 | 21.0 | 0.00 | 0.00 | 0.00 | 1011.0 | |
| 20260905053744 | 66 | 0 | 1.0 | 10.0 | 0.00 | 0.00 | 0.00 | 1011.0 | |
| 20260905052244 | 66 | 0 | 1.0 | 13.0 | 0.00 | 0.00 | 0.00 | 1010.0 | |
| 20260905050744 | 66 | 0 | 1.0 | 15.0 | 0.00 | 0.00 | 0.00 | 1010.0 | |
| 20260905045244 | 66 | 0 | 1.0 | 10.0 | 0.00 | 0.00 | 0.00 | 1010.0 | |
| 20260905043744 | 66 | 0 | 1.0 | 7.0 | 0.00 | 0.00 | 0.00 | 1010.0 | |
| 20260905042244 | 66 | 0 | 1.0 | 12.0 | 0.00 | 0.00 | 0.00 | 1009.0 | |
| 20260905040744 | 66 | 0 | 1.0 | 13.0 | 0.00 | 0.00 | 0.00 | 1009.0 | |
| 20260905035244 | 68 | 0 | 1.0 | 15.0 | 0.00 | 0.00 | 0.00 | 1009.0 | |
| 20260905033744 | 67 | 0 | 1.0 | 17.0 | 0.00 | 0.00 | 0.00 | 1008.0 | |
| 20260905032244 | 68 | 0 | 2.0 | 21.0 | 0.00 | 0.00 | 0.00 | 1008.0 | |
| 20260905030744 | 71 | 0 | 1.0 | 13.0 | 0.00 | 0.00 | 0.00 | 1008.0 | |
| 20260905025244 | 70 | 0 | 1.0 | 8.0 | 0.00 | 0.00 | 0.00 | 1007.0 | |
| 20260905023744 | 71 | 0 | 1.0 | 11.0 | 0.00 | 0.00 | 0.00 | 1007.0 | |
| 20260905022244 | 71 | 0 | 1.0 | 12.0 | 0.00 | 0.00 | 0.00 | 1007.0 | |
| 20260905020744 | 71 | 0 | 1.0 | 8.0 | 0.00 | 0.00 | 0.00 | 1007.0 | |
| 20260905015244 | 72 | 0 | 1.0 | 9.0 | 0.00 | 0.00 | 0.00 | 1006.0 | |
| 20260905013744 | 73 | 0 | 2.0 | 10.0 | 0.00 | 0.00 | 0.00 | 1007.0 | |
| 20260905012244 | 74 | 0 | 2.0 | 12.0 | 0.00 | 0.00 | 0.00 | 1007.0 | |
| 20260905010744 | 77 | 0 | 2.0 | 16.0 | 0.00 | 0.00 | 0.00 | 1006.0 | |
| 20260905005244 | 80 | 0 | 2.0 | 12.0 | 0.00 | 0.00 | 0.00 | 1005.0 | |
| 20260905003742 | 81 | 0 | 1.0 | 9.0 | 0.00 | 0.00 | 0.00 | 1005.0 | |
| 20260905002242 | 81 | 0 | 2.0 | 16.0 | 0.00 | 0.00 | 0.00 | 1004.0 | |
| 20260905000742 | 81 | 0 | 2.0 | 15.0 | 0.00 | 0.00 | 0.00 | 1004.0 | |
| 20260904235242 | 76 | 0 | 0.0 | 0.0 | 0.00 | 0.00 | 0.00 | 1004.0 |